[[{"header":{"parameterUnit":"m.s-1","parameterCategory":1,"la1":30.2991,"la2":30.254,"lo1":-89.0895,"lo2":-89.0444,"dy":0.0017,"dx":0.0017,"nx":28,"ny":28,"refTime":"2024-07-19T21:00:00:Z","depth":0,"parameterNumber":2,"parameterNumberName":"U-component_of_WINDS"},"data":[0,0,0,0,0,0,0,0,0,0,0,0,0,0,0,0,0,0,0,0,0,0,0,0,0,0,0,0,0,0,0,0,0,0,0,0,0,0,0,0,0,0,0,0,0,0,0,0,0,0,0,0,0,0,0,0,0,0,-0.6408,-0.6407,0,-0.6305,-0.6304,-0.6303,-0.6257,-0.6257,-0.6257,-0.6257,-0.6152,-0.6149,-0.6146,0,0,0,0,0,0,0,0,0,0,0,0,0,-0.6565,-0.6562,-0.6408,-0.6407,-0.6406,-0.6306,-0.6304,-0.6303,-0.6257,-0.6257,-0.6257,-0.6257,-0.6153,-0.6149,-0.6146,0,0,0,0,0,0,0,0,0,0,0,0,0,-0.6483,-0.6561,-0.6408,-0.6371,-0.6366,-0.6306,-0.6304,-0.6302,-0.6257,-0.6257,-0.6257,-0.6258,-0.6154,-0.6149,-0.6145,-0.6114,0,0,-0.6132,-0.613,0,0,0,0,0,0,0,0,-0.6488,-0.6477,-0.6378,-0.6373,-0.6368,-0.6294,-0.6321,-0.6239,-0.6257,-0.6299,-0.6257,-0.6258,-0.6199,-0.6191,-0.6171,-0.6109,-0.6105,-0.6131,-0.6129,-0.6127,-0.6125,0,0,0,0,0,0,0,-0.6493,-0.6481,-0.6367,-0.6376,-0.637,-0.6359,-0.6348,-0.6305,-0.6249,-0.6295,-0.6291,-0.628,-0.6196,-0.6175,-0.6168,-0.6103,-0.6131,-0.6127,-0.6125,-0.6123,-0.6011,-0.6011,0,0,0,0,0,0,-0.6505,-0.6486,-0.6371,-0.6364,-0.643,-0.6356,-0.6343,-0.6318,-0.6249,-0.6239,-0.628,-0.6278,-0.6183,-0.6173,-0.6164,-0.6124,-0.6127,-0.6123,-0.612,-0.6011,-0.6011,-0.6011,0,0,0,0,0,0,-0.6509,-0.6495,-0.6375,-0.6424,-0.6408,-0.6353,-0.6325,-0.6316,-0.6295,-0.6238,-0.6228,-0.6269,-0.6183,-0.617,-0.6127,-0.6119,-0.6121,-0.6117,-0.6012,-0.6011,-0.6011,-0.6042,0,0,0,0,0,0,-0.6514,-0.6497,-0.6485,-0.6425,-0.6406,-0.634,-0.6324,-0.6314,-0.6287,-0.6284,-0.6225,-0.6215,-0.6182,-0.6134,-0.6123,-0.6113,-0.6113,-0.6012,-0.6011,-0.6011,-0.6042,-0.6043,-0.6044,0,0,0,0,0,-0.6519,-0.6497,-0.6484,-0.647,-0.6389,-0.6339,-0.6328,-0.6291,-0.6287,-0.6274,-0.6238,-0.6217,-0.6122,-0.613,-0.6117,-0.6106,-0.6012,-0.6012,-0.6011,-0.6041,-0.6043,-0.6044,0,0,0,0,0,0,-0.6557,-0.6489,-0.6473,-0.6431,-0.6392,-0.6332,-0.6314,-0.6294,-0.6254,-0.6253,-0.6208,-0.6194,-0.6155,-0.6126,-0.6136,-0.6073,-0.6065,-0.6062,-0.6093,-0.6094,-0.6095,-0.6103,-0.6109,0,0,0,0,0,-0.6561,-0.6526,-0.6468,-0.6437,-0.6417,-0.637,-0.6346,-0.6321,-0.6278,-0.626,-0.6221,-0.618,-0.614,-0.6116,-0.6076,-0.6037,-0.6024,-0.6024,-0.6025,-0.6026,-0.6023,-0.6001,-0.6,-0.6008,-0.6008,-0.6008,0,0,-0.6568,-0.6526,-0.6507,-0.6443,-0.6409,-0.6374,-0.6355,-0.6319,-0.6293,-0.6255,-0.6211,-0.6181,-0.6132,-0.6091,-0.6071,-0.6066,-0.6018,-0.6025,-0.6027,-0.6023,-0.6,-0.5999,-0.5999,-0.6008,-0.6008,-0.6008,0,0,-0.6563,-0.6528,-0.6498,-0.6464,-0.6414,-0.6382,-0.6375,-0.6318,-0.6296,-0.6252,-0.6223,-0.6191,-0.6125,-0.6091,-0.6065,-0.6049,-0.6028,-0.6037,-0.6043,-0.6021,-0.6021,-0.602,-0.6014,-0.6012,-0.6035,-0.6035,-0.6035,0,-0.6578,-0.6524,-0.6485,-0.645,-0.6423,-0.6388,-0.6357,-0.6327,-0.6266,-0.6248,-0.6243,-0.616,-0.6124,-0.6075,-0.6071,-0.6051,-0.6041,-0.6043,-0.6024,-0.6023,-0.6022,-0.6015,-0.6013,-0.6036,-0.6036,-0.6036,-0.6036,0,-0.6545,-0.6508,-0.649,-0.6432,-0.6403,-0.6371,-0.6327,-0.6302,-0.628,-0.6249,-0.6205,-0.6161,-0.6113,-0.6099,-0.6077,-0.6046,-0.6045,-0.6033,-0.6025,-0.6023,-0.6016,-0.6014,-0.6038,-0.6038,-0.6037,-0.6037,0,0,-0.656,-0.6482,-0.6476,-0.6449,-0.6391,-0.6362,-0.6328,-0.6281,-0.6261,-0.622,-0.6191,-0.6136,-0.6125,-0.6095,-0.6069,-0.605,-0.604,-0.604,-0.6038,-0.6041,-0.6004,-0.6013,-0.6011,-0.6026,-0.6025,-0.6025,-0.6008,0,-0.6547,-0.6485,-0.6449,-0.6401,-0.6367,-0.6334,-0.6304,-0.6265,-0.6236,-0.6202,-0.6169,-0.6131,-0.6119,-0.6101,-0.6081,-0.6045,-0.6031,-0.6046,-0.5998,-0.5997,-0.6011,-0.6007,-0.6017,-0.6003,-0.6005,-0.6005,-0.6004,0,-0.6522,-0.6483,-0.6432,-0.6378,-0.6363,-0.6337,-0.6291,-0.626,-0.6215,-0.6195,-0.6163,-0.6136,-0.61,-0.6095,-0.6044,-0.6054,-0.6033,-0.6012,-0.6011,-0.6004,-0.6,-0.6001,-0.5998,-0.5996,-0.6,-0.6,-0.6,0,-0.6539,-0.6473,-0.6434,-0.6412,-0.6348,-0.6331,-0.6304,-0.6259,-0.6234,-0.6194,-0.6177,-0.6133,-0.6109,-0.6076,-0.6039,-0.6039,-0.5991,-0.5983,-0.5973,-0.5974,-0.5964,-0.5965,-0.5957,-0.5951,-0.5951,-0.5951,-0.5951,0,-0.6527,-0.6498,-0.644,-0.6416,-0.6382,-0.6342,-0.6309,-0.6279,-0.624,-0.621,-0.6178,-0.615,-0.6103,-0.6069,-0.604,-0.6002,-0.5991,-0.5974,-0.5966,-0.5976,-0.5979,-0.5961,-0.5961,-0.595,-0.595,-0.595,-0.5951,0,-0.6539,-0.65,-0.6455,-0.6399,-0.6384,-0.6361,-0.6313,-0.6288,-0.6257,-0.6219,-0.6208,-0.616,-0.6118,-0.6078,-0.6023,-0.6003,-0.5965,-0.5955,-0.598,-0.5976,-0.5968,-0.5969,-0.5948,-0.5943,-0.5941,-0.5941,-0.5941,0,-0.6534,-0.6511,-0.6452,-0.6429,-0.6403,-0.6367,-0.6341,-0.63,-0.6274,-0.6222,-0.6204,-0.6161,-0.6124,-0.606,-0.6019,-0.5977,-0.5966,-0.5961,-0.5959,-0.597,-0.5965,-0.5967,-0.5964,-0.5962,-0.5962,-0.5963,-0.5963,0,-0.653,-0.6512,-0.6475,-0.6432,-0.6401,-0.6365,-0.6328,-0.6311,-0.6264,-0.6236,-0.6194,-0.6165,-0.6109,-0.6066,-0.602,-0.5991,-0.5969,-0.5964,-0.5959,-0.5969,-0.5985,-0.5976,-0.5983,-0.5964,-0.5964,-0.5964,-0.5964,-0.5964,-0.6533,-0.651,-0.6466,-0.6426,-0.6394,-0.636,-0.6334,-0.6301,-0.6265,-0.6216,-0.6194,-0.6152,-0.6108,-0.6043,-0.6015,-0.5981,-0.5976,-0.5969,-0.5967,-0.5966,-0.5968,-0.5991,-0.5973,-0.5972,-0.5972,-0.5972,-0.5972,0,-0.6527,-0.6496,-0.646,-0.6409,-0.6378,-0.6361,-0.6319,-0.6294,-0.6257,-0.6218,-0.6183,-0.6135,-0.6093,-0.605,-0.6006,-0.5988,-0.5976,-0.5977,-0.5978,-0.5972,-0.5976,-0.5984,-0.5987,-0.5987,-0.5987,-0.5987,-0.5987,-0.5987,-0.652,-0.6481,-0.6458,-0.6403,-0.6373,-0.6331,-0.6308,-0.6277,-0.6246,-0.6194,-0.6159,-0.6132,-0.6091,-0.6044,-0.6005,-0.5994,-0.5979,-0.5983,-0.5968,-0.5973,-0.5972,-0.5971,-0.5978,-0.598,-0.598,-0.5967,-0.5967,-0.5967]},{"header":{"parameterUnit":"m.s-1","parameterCategory":1,"la1":30.2991,"la2":30.254,"lo1":-89.0895,"lo2":-89.0444,"dy":0.0017,"dx":0.0017,"nx":28,"ny":28,"refTime":"2024-07-19T21:00:00:Z","depth":0,"parameterNumber":3,"parameterNumberName":"V-component_of_WINDS"},"data":[0,0,0,0,0,0,0,0,0,0,0,0,0,0,0,0,0,0,0,0,0,0,0,0,0,0,0,0,0,0,0,0,0,0,0,0,0,0,0,0,0,0,0,0,0,0,0,0,0,0,0,0,0,0,0,0,0,0,3.9449,3.945,0,3.9534,3.9535,3.9536,3.9525,3.9524,3.9522,3.9521,3.9605,3.9609,3.9612,0,0,0,0,0,0,0,0,0,0,0,0,0,3.9276,3.928,3.9449,3.945,3.9451,3.9533,3.9535,3.9536,3.9525,3.9523,3.9522,3.952,3.9604,3.9608,3.9612,0,0,0,0,0,0,0,0,0,0,0,0,0,3.9355,3.9281,3.9449,3.9456,3.9457,3.9533,3.9535,3.9536,3.9525,3.9523,3.9521,3.9519,3.9603,3.9608,3.9613,3.9687,0,0,3.9629,3.9631,0,0,0,0,0,0,0,0,3.9351,3.9362,3.9454,3.9456,3.9457,3.9517,3.9505,3.9587,3.9526,3.95,3.9521,3.9518,3.9577,3.9584,3.9605,3.9691,3.9694,3.963,3.9633,3.9635,3.9637,0,0,0,0,0,0,0,3.9345,3.9358,3.9482,3.9455,3.9457,3.9454,3.9463,3.952,3.9549,3.9502,3.9501,3.9511,3.9578,3.96,3.9607,3.9696,3.9629,3.9634,3.9637,3.9639,3.9846,3.9849,0,0,0,0,0,0,3.9338,3.9353,3.948,3.9485,3.9398,3.9459,3.9469,3.95,3.9548,3.9554,3.9513,3.9511,3.9592,3.9601,3.961,3.9699,3.9635,3.964,3.9643,3.9844,3.9847,3.9849,0,0,0,0,0,0,3.9335,3.935,3.9476,3.9419,3.9435,3.9464,3.9499,3.9502,3.9524,3.9557,3.9562,3.953,3.959,3.9602,3.9668,3.9702,3.9642,3.9647,3.9841,3.9845,3.9848,3.9879,0,0,0,0,0,0,3.933,3.9349,3.9377,3.942,3.9438,3.9534,3.9501,3.9506,3.9534,3.9531,3.9574,3.9579,3.959,3.966,3.9673,3.9708,3.9651,3.9838,3.9843,3.9847,3.9875,3.9883,3.989,0,0,0,0,0,3.9324,3.9382,3.9379,3.9394,3.9475,3.9536,3.9546,3.9558,3.9537,3.9565,3.9586,3.9578,3.9696,3.9667,3.9681,3.9719,3.9836,3.9842,3.9847,3.9872,3.9882,3.989,0,0,0,0,0,0,3.9342,3.9388,3.9385,3.9459,3.9494,3.9534,3.9571,3.9568,3.9608,3.9604,3.9616,3.9626,3.9692,3.9712,3.9678,3.9793,3.9763,3.9772,3.9777,3.9787,3.9794,3.9788,3.9656,0,0,0,0,0,3.9355,3.9401,3.9438,3.95,3.9518,3.9541,3.9568,3.9574,3.961,3.9625,3.9651,3.9685,3.973,3.976,3.9803,3.9878,3.9887,3.9911,3.9918,3.9924,3.9931,3.9973,3.9984,3.9867,3.9866,3.9866,0,0,3.9381,3.9412,3.9441,3.9505,3.9532,3.958,3.9554,3.9605,3.964,3.9632,3.9696,3.9716,3.9756,3.9827,3.9859,3.9845,3.9966,3.9931,3.9936,3.9939,3.9979,3.999,4.0,3.987,3.9869,3.9869,0,0,3.9454,3.9482,3.9537,3.9565,3.9608,3.9623,3.9636,3.9677,3.9691,3.9755,3.9751,3.9792,3.9869,3.9898,3.9923,4.0007,4.0001,4.002,4.0059,4.01,4.0109,4.0117,4.0147,4.0158,4.0027,4.0027,4.0028,0,3.9481,3.9553,3.9565,3.9617,3.9645,3.9642,3.9697,3.9723,3.9778,3.9797,3.9781,3.9878,3.9905,3.9982,4.0003,4.0023,4.0038,4.0015,4.0107,4.0115,4.0123,4.0152,4.0163,4.003,4.0029,4.0029,4.0029,0,3.9585,3.9635,3.9674,3.9727,3.976,3.9813,3.9832,3.9864,3.9867,3.9884,3.9949,3.9981,4.0031,4.0049,4.0052,4.0128,4.0118,4.0104,4.0075,4.0136,4.0163,4.0174,4.0033,4.0032,4.0031,4.0031,0,0,3.9671,3.9731,3.9745,3.9769,3.9816,3.9855,3.9907,3.9957,3.9984,4.0021,4.0066,4.0132,4.0119,4.0147,4.0154,4.0189,4.0254,4.0171,4.0172,4.0185,4.0338,4.0348,4.0361,4.025,4.0252,4.0254,4.0335,0,3.9748,3.9843,3.9855,3.9939,3.9985,3.9982,4.0028,4.0062,4.0079,4.012,4.0139,4.0185,4.0166,4.0183,4.0218,4.0238,4.0285,4.0233,4.0291,4.0293,4.0281,4.0375,4.0386,4.0461,4.0346,4.0348,4.0349,0,3.9851,3.9892,3.9981,4.0022,4.0042,4.0083,4.0129,4.0169,4.0207,4.0217,4.0248,4.025,4.0305,4.0273,4.0348,4.0313,4.0337,4.0351,4.0355,4.036,4.0325,4.0384,4.0485,4.0497,4.0366,4.0364,4.0363,0,3.9905,3.9983,4.0046,4.0067,4.0116,4.0145,4.0167,4.0203,4.0232,4.0272,4.0291,4.0337,4.0362,4.0397,4.0412,4.0387,4.0486,4.0456,4.0495,4.0495,4.0516,4.0515,4.0623,4.0532,4.0532,4.0532,4.0531,0,3.999,4.0044,4.0071,4.011,4.017,4.0184,4.0243,4.0264,4.0296,4.0338,4.0338,4.0378,4.0394,4.0436,4.0448,4.0508,4.0519,4.0529,4.0531,4.0529,4.0528,4.0545,4.054,4.0535,4.0534,4.0533,4.0533,0,4.0061,4.0081,4.0149,4.0191,4.0202,4.0245,4.028,4.0318,4.0334,4.0388,4.0401,4.0428,4.0478,4.0495,4.0555,4.0563,4.0633,4.0631,4.0621,4.0621,4.066,4.0656,4.0784,4.0801,4.0698,4.0699,4.07,0,4.0114,4.0155,4.0202,4.023,4.0253,4.03,4.0329,4.0344,4.0375,4.0422,4.0453,4.0503,4.0543,4.0623,4.0647,4.0693,4.0692,4.0734,4.0699,4.0696,4.0693,4.069,4.0695,4.074,4.0741,4.0742,4.0743,0,4.0206,4.0214,4.0257,4.0304,4.034,4.0378,4.0414,4.0437,4.0458,4.0492,4.0544,4.0575,4.0637,4.0686,4.0733,4.0755,4.0753,4.0753,4.0765,4.0763,4.0756,4.076,4.0638,4.075,4.075,4.0749,4.0749,4.0748,4.0269,4.0306,4.0345,4.0393,4.0422,4.0456,4.0494,4.0516,4.0559,4.0611,4.0617,4.0672,4.0709,4.0772,4.0796,4.0839,4.0828,4.0844,4.0849,4.0853,4.0856,4.0749,4.0848,4.0847,4.0847,4.0847,4.0847,0,4.0361,4.0386,4.043,4.0482,4.052,4.0514,4.0555,4.0587,4.0635,4.067,4.071,4.0769,4.0817,4.0846,4.0893,4.0922,4.0922,4.0934,4.0932,4.0938,4.0863,4.0848,4.0934,4.0934,4.0934,4.0934,4.0934,4.0934,4.0413,4.0476,4.0488,4.0565,4.059,4.0644,4.0668,4.0699,4.0727,4.0793,4.0833,4.0852,4.0884,4.0934,4.0978,4.0985,4.1003,4.1016,4.1022,4.0952,4.0943,4.0934,4.092,4.102,4.102,4.1093,4.1094,4.1094]}]]